This is the latest recevied weather packets stored in our database for station/object NR0A-4. If no packets are shown the sender has not sent any weather packets the latest 10 day(s).
| Time | Temp. | Humidity | Pressure | Rain* | Wind** | Luminosity | Snow |
|---|---|---|---|---|---|---|---|
| 1788630004 | 25.56° C | 68% | 1015.4 hPa | 0 mm | - | 236 W/m² | - |
| 1788629704 | 25.56° C | 68% | 1015.6 hPa | 0 mm | - | 244 W/m² | - |
| 1788629404 | 25.56° C | 67% | 1015.7 hPa | 0 mm | - | 241 W/m² | - |
| 1788629104 | 25.56° C | 67% | 1015.7 hPa | 0 mm | - | 255 W/m² | - |
| 1788628804 | 25.56° C | 65% | 1015.9 hPa | 0 mm | - | 267 W/m² | - |
| 1788628504 | 25.56° C | 66% | 1016.2 hPa | 0 mm | - | 281 W/m² | - |
| 1788628204 | 25.56° C | 67% | 1016.5 hPa | 0 mm | - | 664 W/m² | - |
| 1788627904 | 25.56° C | 67% | 1016.7 hPa | 0 mm | - | 714 W/m² | - |
| 1788627604 | 25.56° C | 66% | 1016.8 hPa | 0 mm | - | 675 W/m² | - |
| 1788627305 | 25.56° C | 68% | 1016.5 hPa | 0 mm | - | 714 W/m² | - |
| 1788627005 | 25° C | 69% | 1016.5 hPa | 0 mm | - | 605 W/m² | - |
| 1788626704 | 24.44° C | 72% | 1016.6 hPa | 0 mm | - | 401 W/m² | - |
| 1788626404 | 24.44° C | 70% | 1016.8 hPa | 0 mm | - | 446 W/m² | - |
| 1788626104 | 24.44° C | 70% | 1016.8 hPa | 0 mm | - | 318 W/m² | - |
| 1788625804 | 23.89° C | 72% | 1017 hPa | 0 mm | - | 271 W/m² | - |
| 1788625504 | 23.89° C | 72% | 1016.8 hPa | 0 mm | - | 316 W/m² | - |
| 1788625204 | 23.89° C | 72% | 1016.7 hPa | 0 mm | - | 227 W/m² | - |
| 1788624904 | 23.33° C | 72% | 1016.7 hPa | 0 mm | - | 200 W/m² | - |
| 1788624604 | 23.33° C | 73% | 1016.7 hPa | 0 mm | - | 169 W/m² | - |
| 1788624304 | 23.89° C | 72% | 1016.8 hPa | 0 mm | - | 176 W/m² | - |
| 1788624003 | 23.89° C | 72% | 1016.9 hPa | 0 mm | - | 176 W/m² | - |
| 1788623704 | 23.89° C | 72% | 1016.9 hPa | 0 mm | - | 167 W/m² | - |
| 1788623405 | 23.89° C | 72% | 1016.8 hPa | 0 mm | - | 179 W/m² | - |
| 1788623104 | 23.89° C | 74% | 1016.9 hPa | 0 mm | - | 185 W/m² | - |
| 1788622804 | 23.89° C | 74% | 1016.8 hPa | 0 mm | - | 181 W/m² | - |
* Rain latest hour (hover to see other rain measurements)
** Current wind speed in m/s (hover to see current wind gust speed)